Weather reports worldwide

Advertisment
Albi, France (7632): temperature & dewpoint: 13.03.2019 09:00:00 - 19.03.2019 09:00:00 (CET)Albi, France (7632): temperature 5cm: 13.03.2019 09:00:00 - 19.03.2019 09:00:00 (CET)Albi, France (7632): temperature -20cm & temperature -100cm: 13.03.2019 09:00:00 - 19.03.2019 09:00:00 (CET)Albi, France (7632): wind speed & gusts: 13.03.2019 09:00:00 - 19.03.2019 09:00:00 (CET)Albi, France (7632): wind direction: 13.03.2019 09:00:00 - 19.03.2019 09:00:00 (CET)Albi, France (7632): reduced air pressure: 13.03.2019 09:00:00 - 19.03.2019 09:00:00 (CET)Albi, France (7632): visibility: 13.03.2019 09:00:00 - 19.03.2019 09:00:00 (CET)Albi, France (7632): sunshine duration: 13.03.2019 09:00:00 - 19.03.2019 09:00:00 (CET)Albi, France (7632): precipitation: 13.03.2019 09:00:00 - 19.03.2019 09:00:00 (CET)
Date & Time tt [°C] td [°C] tt 5cm [°C] tt -20cm [°C] tt -100cm [°C] ff [km/h] ff [kn] fx [km/h] fx [kn] dd ppp [hPa] vv [km] sd [min] rr [mm]
19.03.2019 09:00:00 6,4 4,2 5,9 10,1 10,9 8 5 13 7 W 1027,1 20 0 0,0
19.03.2019 08:00:00 5,8 4,3 5,0 10,1 10,9 6 4 10 6 W 1026,7 20 25 0,0
19.03.2019 07:00:00 5,3 3,9 4,8 10,1 11,0 8 4 14 8 W 1026,0 20 0 0,0
19.03.2019 06:00:00 5,5 3,8 5,0 10,2 10,9 9 5 17 9 W 1025,7 20 0 0,0
19.03.2019 05:00:00 5,4 3,9 4,8 10,2 10,9 5 3 10 6 WSW 1026,0 20 0 0,0
19.03.2019 04:00:00 5,3 3,8 4,7 10,2 10,9 6 3 17 9 W 1025,7 20 0 0,0
19.03.2019 03:00:00 5,5 3,7 4,9 10,2 10,9 9 5 14 8 W 1026,1 20 0 0,2
19.03.2019 02:00:00 5,8 4,3 5,1 10,2 10,9 5 3 9 5 W 1026,5 20 0 0,0
19.03.2019 01:00:00 6,0 3,8 5,1 10,2 10,9 2 1 22 12 WNW 1026,6 20 0 0,8
19.03.2019 00:00:00 6,9 3,3 5,9 10,2 10,9 7 4 23 13 W 1026,8 19 0 0,0
18.03.2019 23:00:00 7,7 3,7 7,3 10,2 10,9 7 4 22 12 W 1026,7 20 0 0,0
18.03.2019 22:00:00 8,2 3,4 7,9 10,2 11,0 14 8 23 12 W 1026,5 20 0 0,0
18.03.2019 21:00:00 8,7 2,9 6,6 10,1 10,9 8 4 39 21 WNW 1025,9 20 0 0,2
18.03.2019 20:00:00 9,3 3,1 7,8 10,1 10,9 28 15 48 26 W 1025,7 20 0 0,0
18.03.2019 19:00:00 10,7 0,1 10,4 10,1 10,9 16 9 31 17 W 1025,0 20 0 0,0
18.03.2019 18:00:00 11,3 1,0 11,3 10,1 10,9 17 9 38 20 W 1024,6 20 15 0,0
18.03.2019 17:00:00 11,7 1,0 12,9 10,0 10,9 21 12 51 27 W 1024,6 20 51 0,0
18.03.2019 16:00:00 12,2 0,6 13,2 10,0 10,9 20 11 49 26 W 1024,6 20 35 0,0
18.03.2019 15:00:00 11,3 0,4 12,0 10,0 10,9 20 11 40 21 W 1025,2 20 27 0,0
18.03.2019 14:00:00 10,6 0,0 9,9 10,0 10,9 19 10 35 19 W 1026,0 20 5 0,0
18.03.2019 13:00:00 10,4 0,7 11,6 10,0 10,9 19 10 37 20 W 1026,6 20 28 0,0
18.03.2019 12:00:00 9,2 0,4 10,9 10,1 10,9 16 9 36 19 NW 1027,3 20 24 0,0
18.03.2019 11:00:00 8,2 1,1 9,5 10,1 10,9 16 8 29 15 WNW 1027,6 20 29 0,0
18.03.2019 10:00:00 6,8 3,2 6,4 10,1 10,9 5 3 21 11 NW 1027,4 20 5 0,0
18.03.2019 09:00:00 5,3 3,1 4,9 10,2 10,9 9 5 17 9 W 1026,9 20 2 0,0
18.03.2019 08:00:00 3,8 2,6 2,6 10,2 10,9 4 2 23 12 SW 1026,5 20 0 0,0
18.03.2019 07:00:00 3,1 1,8 2,6 10,3 10,9 11 6 16 9 WSW 1026,1 20 0 0,0
18.03.2019 06:00:00 3,4 2,4 1,7 10,3 10,9 9 5 14 8 WSW 1025,8 20 0 0,0
18.03.2019 05:00:00 3,6 2,0 2,7 10,3 10,9 11 6 15 8 SW 1024,9 20 0 0,0
18.03.2019 04:00:00 3,8 2,0 2,0 10,4 10,9 6 3 12 6 SSW 1024,6 20 0 0,0
18.03.2019 03:00:00 4,5 2,4 3,2 10,4 10,9 8 5 14 8 WSW 1024,6 20 0 0,0
18.03.2019 02:00:00 4,2 1,4 3,5 10,4 10,9 9 5 16 9 WSW 1024,7 20 0 0,0
18.03.2019 01:00:00 5,0 1,1 3,3 10,4 10,9 8 4 18 10 SW 1024,9 20 0 0,0
18.03.2019 00:00:00 5,0 0,7 2,3 10,5 10,9 14 7 25 14 SW 1024,6 20 0 0,0
17.03.2019 23:00:00 5,0 -0,2 3,5 10,5 10,9 9 5 19 10 WSW 1024,7 20 0 0,0
17.03.2019 22:00:00 6,9 0,3 5,7 10,5 10,9 9 5 25 14 W 1023,8 20 0 0,0
17.03.2019 21:00:00 7,2 1,3 6,1 10,5 10,9 11 6 22 12 W 1023,1 20 0 0,0
17.03.2019 20:00:00 8,6 1,0 7,6 10,4 10,8 11 6 33 18 W 1021,9 20 0 0,0
17.03.2019 19:00:00 9,9 1,3 9,1 10,4 10,8 16 9 49 26 WNW 1020,8 20 34 0,0
17.03.2019 18:00:00 11,4 3,2 11,3 10,4 10,8 24 13 41 22 W 1020,0 20 47 0,0
17.03.2019 17:00:00 11,9 4,1 9,9 10,4 10,9 20 11 41 22 W 1019,4 20 42 0,0
17.03.2019 16:00:00 9,7 5,9 8,2 10,4 10,9 12 6 48 26 W 1019,9 20 0 0,2
17.03.2019 15:00:00 10,1 6,8 9,3 10,4 10,8 16 9 42 23 WNW 1019,3 20 0 0,0
17.03.2019 14:00:00 11,5 9,7 10,3 10,4 10,9 15 8 24 13 WSW 1018,1 15 0 0,8
17.03.2019 13:00:00 11,7 8,0 11,6 10,4 10,8 10 5 23 12 SW 1018,3 20 0 0,0
17.03.2019 12:00:00 11,0 7,7 11,5 10,5 10,9 10 5 18 10 SSW 1018,9 18 0 0,0
17.03.2019 11:00:00 10,1 7,7 10,3 10,5 10,9 9 5 15 8 SSW 1019,3 13 0 0,0
17.03.2019 10:00:00 9,1 7,0 8,1 10,5 10,8 5 3 13 7 S 1019,3 15 0 0,0
17.03.2019 09:00:00 7,5 5,1 7,5 10,6 10,8 4 2 13 7 NW 1019,1 20 0 0,0
17.03.2019 08:00:00 7,2 5,3 6,3 10,6 10,8 2 1 6 4 WSW 1018,7 20 0 0,0
17.03.2019 07:00:00 6,2 5,2 1,1 10,7 10,8 6 4 12 7 SW 1017,7 20 0 0,0
17.03.2019 06:00:00 3,2 1,7 0,7 10,7 10,8 3 2 10 6 NW 1016,3 20 0 0,0
17.03.2019 05:00:00 3,0 1,5 1,2 10,7 10,8 6 3 25 14 ESE 1014,5 20 0 0,0
17.03.2019 04:00:00 3,8 1,5 1,2 10,8 10,9 4 2 8 4 ENE 1013,4 20 0 0,0
17.03.2019 03:00:00 4,4 1,9 2,1 10,8 10,8 4 2 11 6 ENE 1013,5 20 0 0,0
17.03.2019 02:00:00 5,6 3,4 1,9 10,8 10,8 6 3 10 6 ENE 1013,9 20 0 0,0
17.03.2019 01:00:00 5,4 2,9 2,7 10,8 10,8 4 2 8 5 ENE 1014,5 20 0 0,0
17.03.2019 00:00:00 6,3 4,1 3,7 10,8 10,8 9 5 11 6 ENE 1015,4 20 0 0,0
16.03.2019 23:00:00 6,8 4,8 3,3 10,7 10,8 5 3 5 3 E 1015,9 20 0 0,0
16.03.2019 22:00:00 7,7 5,2 4,4 10,7 10,8 2 1 7 4 ENE 1015,9 20 0 0,0
16.03.2019 21:00:00 9,0 5,4 5,9 10,6 10,8 0 0 9 5 N 1015,7 20 0 0,0
16.03.2019 20:00:00 10,4 6,3 7,1 10,5 10,8 4 2 5 3 ENE 1015,5 20 0 0,0
16.03.2019 19:00:00 15,0 6,3 11,7 10,4 10,8 3 2 6 4 WSW 1015,7 20 36 0,0
16.03.2019 18:00:00 18,9 3,5 21,4 10,4 10,8 3 1 7 4 SE 1015,7 20 60 0,0
16.03.2019 17:00:00 19,4 4,3 22,4 10,3 10,8 4 2 9 5 WSW 1016,5 20 57 0,0
16.03.2019 16:00:00 19,8 3,5 25,8 10,2 10,8 5 3 11 6 SSW 1017,2 20 60 0,0
16.03.2019 15:00:00 18,5 3,5 24,6 10,2 10,8 3 1 9 5 N 1018,2 20 60 0,0
16.03.2019 14:00:00 17,7 4,6 24,1 10,2 10,8 2 1 10 5 SW 1019,6 20 60 0,0
16.03.2019 13:00:00 15,3 5,5 21,5 10,2 10,8 4 2 13 7 N 1020,8 20 60 0,0
16.03.2019 12:00:00 12,9 4,8 19,3 10,2 10,8 7 4 14 8 N 1021,8 20 60 0,0
16.03.2019 11:00:00 12,1 4,3 16,0 10,2 10,8 4 2 14 8 NNE 1022,8 20 60 0,0
16.03.2019 10:00:00 10,8 5,5 11,4 10,2 10,8 5 3 13 7 NNE 1023,8 20 12 0,0
16.03.2019 09:00:00 8,9 7,3 8,7 10,3 10,8 0 0 4 2 N 1024,3 20 0 0,0
16.03.2019 08:00:00 7,8 6,9 7,2 10,3 10,8 2 1 6 4 ENE 1024,6 20 0 0,0
16.03.2019 07:00:00 7,2 6,3 6,9 10,3 10,8 0 0 5 3 N 1024,9 20 0 0,0
16.03.2019 06:00:00 7,0 6,1 6,6 10,3 10,8 0 0 12 6 N 1025,5 20 0 0,0
16.03.2019 05:00:00 6,9 6,2 5,9 10,3 10,8 0 0 5 3 N 1025,6 20 0 0,0
16.03.2019 04:00:00 6,0 5,3 2,7 10,4 10,8 0 0 3 2 N 1025,9 20 0 0,0
16.03.2019 03:00:00 6,7 5,6 5,1 10,3 10,8 0 0 5 3 N 1026,5 20 0 0,0
16.03.2019 02:00:00 7,2 6,1 3,9 10,3 10,8 3 1 10 6 S 1027,3 19 0 0,0
16.03.2019 01:00:00 6,6 5,4 4,3 10,4 10,8 5 3 12 7 SW 1027,4 20 0 0,0
16.03.2019 00:00:00 6,5 5,0 4,1 10,3 10,8 6 4 9 5 SW 1027,9 20 0 0,0
15.03.2019 23:00:00 8,7 6,7 7,5 10,3 10,8 7 4 16 9 W 1028,0 20 0 0,0
15.03.2019 22:00:00 10,0 7,1 9,2 10,3 10,8 14 7 25 13 WSW 1027,9 20 0 0,0
15.03.2019 21:00:00 11,1 7,4 11,0 10,2 10,8 15 8 36 19 W 1027,7 20 0 0,0
15.03.2019 20:00:00 11,8 7,5 11,5 10,2 10,8 20 11 37 20 W 1027,4 20 0 0,0
15.03.2019 19:00:00 11,8 8,3 11,7 10,2 10,8 10 6 30 16 WSW 1027,1 20 0 0,0
15.03.2019 18:00:00 12,6 7,5 12,5 10,1 10,8 19 10 31 17 W 1026,5 20 0 0,0
15.03.2019 17:00:00 12,7 8,2 12,8 10,1 10,8 18 10 38 20 WSW 1026,1 20 1 0,0
15.03.2019 16:00:00 13,7 8,3 14,8 10,1 10,8 26 14 39 21 WSW 1026,3 20 1 0,0
15.03.2019 15:00:00 13,7 8,3 13,9 10,1 10,8 18 10 39 21 W 1026,1 20 5 0,0
15.03.2019 14:00:00 13,4 8,9 13,7 10,0 10,8 18 10 47 26 W 1026,3 20 5 0,0
15.03.2019 13:00:00 12,8 9,2 12,9 10,0 10,8 24 13 46 25 W 1026,9 20 7 0,0
15.03.2019 12:00:00 11,5 8,9 10,2 10,0 10,8 20 11 49 26 W 1027,4 20 0 0,0
15.03.2019 11:00:00 10,2 8,6 9,7 10,0 10,8 18 10 32 17 W 1027,9 20 0 0,0
15.03.2019 10:00:00 9,3 8,7 9,0 10,0 10,8 18 10 29 16 W 1028,4 17 0 0,0
15.03.2019 09:00:00 8,8 8,2 8,6 10,0 10,8 21 11 33 18 WSW 1028,2 2,9 0 0,2
15.03.2019 08:00:00 8,6 8,0 8,5 10,1 10,8 21 12 34 19 WSW 1028,0 2,6 0 0,0
15.03.2019 07:00:00 8,6 7,8 8,3 10,1 10,8 23 13 40 21 WSW 1027,5 7 0 0,2
15.03.2019 06:00:00 8,4 7,8 8,3 10,1 10,8 24 13 39 21 WSW 1027,4 5 0 0,4
15.03.2019 05:00:00 8,5 7,7 8,4 10,1 10,8 25 13 40 22 WSW 1027,4 1,6 0 0,6
15.03.2019 04:00:00 8,5 7,7 8,3 10,1 10,8 29 16 44 24 WSW 1027,1 1,9 0 1,0
15.03.2019 03:00:00 8,5 7,6 8,2 10,1 10,8 24 13 45 25 SW 1027,7 1,8 0 0,4
15.03.2019 02:00:00 8,6 7,5 8,2 10,1 10,8 23 12 39 21 WSW 1028,0 14 0 0,0
15.03.2019 01:00:00 8,6 7,2 8,1 10,1 10,8 23 12 46 25 W 1027,6 19 0 0,2
15.03.2019 00:00:00 8,7 7,1 8,4 10,1 10,8 28 15 50 27 WSW 1027,3 8 0 0,0
14.03.2019 23:00:00 8,7 7,1 8,7 10,1 10,8 29 15 47 26 WSW 1027,0 20 0 0,0
14.03.2019 22:00:00 8,9 6,9 8,1 10,1 10,8 30 16 47 25 WSW 1026,9 20 0 0,0
14.03.2019 21:00:00 9,2 6,6 8,6 10,0 10,8 30 16 49 26 W 1026,7 13 0 0,0
14.03.2019 20:00:00 9,5 6,6 9,1 10,0 10,8 30 16 50 27 W 1026,4 20 0 0,0
14.03.2019 19:00:00 9,8 6,5 9,1 10,0 10,8 27 15 44 24 W 1026,1 20 0 0,0
14.03.2019 18:00:00 10,1 7,0 9,1 10,0 10,8 25 13 49 26 W 1025,9 14 5 0,2
14.03.2019 17:00:00 11,0 6,3 10,9 9,9 10,8 27 15 55 30 W 1025,3 20 4 0,0
14.03.2019 16:00:00 11,3 6,4 9,3 9,9 10,8 28 15 53 29 W 1025,5 20 9 0,0
14.03.2019 15:00:00 11,4 6,1 11,4 9,9 10,8 27 14 55 30 W 1025,5 20 6 0,0
14.03.2019 14:00:00 10,9 5,8 9,3 9,9 10,8 24 13 49 26 W 1026,6 20 5 0,0
14.03.2019 13:00:00 10,7 6,3 10,0 9,9 10,8 24 13 45 24 W 1027,4 20 5 0,0
14.03.2019 12:00:00 9,9 5,1 8,1 9,9 10,8 23 12 41 22 W 1028,0 20 16 0,2
14.03.2019 11:00:00 8,7 5,8 8,3 9,9 10,8 18 10 36 20 W 1028,7 17 12 0,0
14.03.2019 10:00:00 8,1 5,7 7,4 9,9 10,8 9 5 32 17 W 1029,0 19 1 0,0
14.03.2019 09:00:00 7,5 5,8 6,6 10,0 10,8 18 10 32 17 W 1028,9 20 3 0,0
14.03.2019 08:00:00 6,6 5,4 6,2 10,0 10,8 11 6 25 14 W 1028,6 12 0 0,8
14.03.2019 07:00:00 6,8 4,8 5,9 10,0 10,8 15 8 29 16 W 1028,5 20 0 0,0
14.03.2019 06:00:00 6,6 4,9 5,8 10,0 10,8 14 8 26 14 W 1028,2 20 0 0,0
14.03.2019 05:00:00 6,6 5,1 6,0 10,0 10,8 15 8 32 18 W 1028,2 11 0 0,4
14.03.2019 04:00:00 6,8 4,9 6,0 10,1 10,8 16 9 29 16 W 1028,3 20 0 0,0
14.03.2019 03:00:00 6,7 5,0 6,0 10,1 10,8 19 11 29 16 WSW 1028,7 10 0 0,0
14.03.2019 02:00:00 6,6 5,2 5,8 10,1 10,8 14 8 37 20 W 1029,1 13 0 0,8
14.03.2019 01:00:00 6,8 4,8 5,9 10,1 10,8 22 12 39 21 W 1029,1 20 0 0,2
14.03.2019 00:00:00 7,1 4,2 6,1 10,1 10,8 24 13 48 26 W 1028,8 20 0 0,0
13.03.2019 23:00:00 7,0 4,5 6,2 10,1 10,8 26 14 37 20 WSW 1028,3 16 0 0,0
13.03.2019 22:00:00 7,1 4,2 6,6 10,1 10,8 15 8 40 22 WSW 1027,9 20 0 0,0
13.03.2019 21:00:00 8,1 3,7 7,6 10,1 10,8 25 13 37 20 WSW 1027,1 20 0 0,0
13.03.2019 20:00:00 7,9 4,8 6,4 10,1 10,8 22 12 35 19 WSW 1026,1 20 0 0,0
13.03.2019 19:00:00 8,3 4,1 7,8 10,0 10,8 20 11 35 19 WSW 1025,2 20 32 0,0
13.03.2019 18:00:00 9,5 3,0 8,3 10,0 10,8 21 11 42 23 W 1024,6 20 24 0,0
13.03.2019 17:00:00 9,0 5,0 8,0 10,0 10,8 17 9 44 24 WNW 1024,3 17 3 0,4
13.03.2019 16:00:00 11,8 5,0 12,5 10,0 10,8 29 16 59 32 WSW 1023,2 20 35 0,0
13.03.2019 15:00:00 11,1 4,5 8,6 10,0 10,8 27 15 50 27 WSW 1023,3 20 15 0,0
13.03.2019 14:00:00 10,8 5,7 9,5 10,0 10,8 27 15 43 23 W 1023,5 20 20 0,0
13.03.2019 13:00:00 9,4 5,4 6,5 9,9 10,8 16 9 46 25 WNW 1024,6 20 30 1,0
13.03.2019 12:00:00 10,9 5,4 9,7 10,0 10,8 25 14 44 24 W 1024,6 20 37 0,0
13.03.2019 11:00:00 9,3 4,5 10,4 10,0 10,8 26 14 44 24 W 1025,0 20 23 0,0
13.03.2019 10:00:00 8,4 5,1 7,7 10,0 10,8 21 12 36 19 W 1025,1 20 9 0,0
13.03.2019 09:00:00 6,9 5,2 6,7 10,0 10,8 18 10 30 16 WSW 1025,1 20 4 0,0

tt = temperature
td = dewpoint
tt 5cm = temperature 5cm
tt -20cm = temperature -20cm
tt -100cm = temperature -100cm
ff = wind speed
fx = gusts
dd = wind direction
ppp = reduced air pressure
vv = visibility
sd = sunshine duration
rr = precipitation

Next stations